Rome, NY

3:33 PM EDT on June 25, 2017 (GMT -0400)
Griffiss

Weather History for KRME - November, 2013

Change the Weather History Date:

Thursday, November 14, 2013

  Actual Average Record
Temperature  
Mean Temperature 34 °F -  
Max Temperature 46 °F 47 °F 70 °F (1989)
Min Temperature 21 °F 30 °F 13 °F (1990)
Degree Days  
Heating Degree Days 32    
Moisture  
Dew Point 20 °F    
Average Humidity 62    
Maximum Humidity 85    
Minimum Humidity 34    
Precipitation  
Precipitation 0.00 in - - ()
Sea Level Pressure  
Sea Level Pressure 30.11 in    
Wind  
Wind Speed 5 mph (East)    
Max Wind Speed 16 mph    
Max Gust Speed 25 mph    
Visibility 10 miles    
Events Rain    
Averages and records for this station are not official NWS values.
T = Trace of Precipitation, MM = Missing Value Source: NWS Daily Summary

Daily Weather History Graph

Daily Weather History Graph

Search for Another Location

Airport or City:

Trip Planner

Search our weather history database for the weather conditions in past years. The results will help you decide how hot, cold, wet, or windy it might be!

Date:

Astronomy

Nov. 14, 2013 Rise Set
Actual Time 6:53 AM EST 4:38 PM EST
Civil Twilight 6:22 AM EST 5:08 PM EST
Nautical Twilight 5:48 AM EST 5:43 PM EST
Astronomical Twilight 5:14 AM EST 6:16 PM EST
Moon 3:01 PM EST (11/14) 3:41 AM EST (11/14)
Length of Visible Light 10h 45m
Length of Day
9h 44m
Waxing Gibbous, 91% of the Moon is Illuminated
Nov 14
Waxing Gibbous
Nov 17
Full
Nov 25
Last Quarter
Dec 2
New
Dec 9
First Quarter

Hourly Weather History & Observations

Time (EST) Temp. Windchill Dew Point Humidity Pressure Visibility Wind Dir Wind Speed Gust Speed Precip Events Conditions
12:53 AM 28.0 °F 22.8 °F 19.0 °F 69% 30.14 in 10.0 mi East 4.6 mph - N/A   Clear
1:53 AM 28.9 °F 22.8 °F 19.0 °F 67% 30.12 in 10.0 mi East 5.8 mph - N/A   Clear
2:53 AM 25.0 °F 19.3 °F 19.0 °F 78% 30.12 in 10.0 mi ENE 4.6 mph - N/A   Clear
3:53 AM 24.1 °F 19.7 °F 19.0 °F 81% 30.12 in 10.0 mi East 3.5 mph - N/A   Clear
4:53 AM 21.9 °F - 18.0 °F 85% 30.13 in 10.0 mi Calm Calm - N/A   Clear
5:53 AM 21.0 °F - 17.1 °F 85% 30.14 in 10.0 mi Calm Calm - N/A   Clear
6:53 AM 21.0 °F - 17.1 °F 85% 30.14 in 10.0 mi Calm Calm - N/A   Clear
7:53 AM 24.1 °F - 19.0 °F 81% 30.15 in 10.0 mi Calm Calm - N/A   Scattered Clouds
8:53 AM 30.9 °F - 23.0 °F 72% 30.14 in 10.0 mi Calm Calm - N/A   Clear
9:53 AM 39.9 °F 31.4 °F 19.9 °F 45% 30.14 in 10.0 mi West 16.1 mph 21.9 mph 0.00 in Rain Light Rain
10:53 AM 44.1 °F 37.4 °F 25.0 °F 47% 30.14 in 10.0 mi WSW 13.8 mph 25.3 mph 0.00 in   Scattered Clouds
11:53 AM 45.0 °F 38.9 °F 25.0 °F 46% 30.11 in 10.0 mi West 12.7 mph - N/A   Clear
12:53 PM 44.1 °F 37.7 °F 23.0 °F 43% 30.10 in 10.0 mi West 12.7 mph - N/A   Clear
1:53 PM 46.0 °F 41.0 °F 19.9 °F 35% 30.09 in 10.0 mi West 10.4 mph - N/A   Clear
2:53 PM 46.9 °F - 19.9 °F 34% 30.08 in 10.0 mi SW 6.9 mph - N/A   Clear
3:53 PM 46.0 °F 44.8 °F 21.9 °F 39% 30.07 in 10.0 mi NNW 3.5 mph - N/A   Clear
4:53 PM 39.0 °F - 21.0 °F 49% 30.07 in 10.0 mi Calm Calm - N/A   Clear
5:53 PM 32.0 °F - 21.9 °F 66% 30.08 in 10.0 mi Calm Calm - N/A   Clear
6:53 PM 28.9 °F - 21.9 °F 75% 30.08 in 10.0 mi Calm Calm - N/A   Clear
7:53 PM 28.9 °F - 21.9 °F 75% 30.08 in 10.0 mi Calm Calm - N/A   Clear
8:53 PM 30.0 °F - 21.0 °F 69% 30.08 in 10.0 mi Calm Calm - N/A   Clear
9:53 PM 34.0 °F 27.2 °F 19.0 °F 54% 30.09 in 10.0 mi ENE 8.1 mph - N/A   Clear
10:53 PM 34.0 °F 28.0 °F 19.0 °F 54% 30.09 in 10.0 mi East 6.9 mph - N/A   Clear
11:53 PM 34.0 °F 28.0 °F 18.0 °F 52% 30.10 in 10.0 mi East 6.9 mph - N/A   Clear